Weather History for KSVC - March, 2013

Change the Weather History Date:

Saturday, March 2, 2013

  Actual Average (KDMN) Record (KDMN)
Temperature  
Mean Temperature 48 °F 49 °F  
Max Temperature 68 °F 65 °F 79 °F (1986)
Min Temperature 28 °F 33 °F 20 °F (1964)
Degree Days  
Heating Degree Days 17    
Moisture  
Dew Point 12 °F    
Average Humidity 27    
Maximum Humidity 55    
Minimum Humidity 10    
Precipitation  
Precipitation 0.00 in 0.02 in 0.43 in (1991)
Month to date precipitation 0.04  
Year to date precipitation 1.24  
Sea Level Pressure  
Sea Level Pressure 30.36 in    
Wind  
Wind Speed 9 mph (WNW)    
Max Wind Speed 15 mph    
Max Gust Speed 22 mph    
Visibility 10 miles    
Events      
T = Trace of Precipitation, MM = Missing Value Source: NWS Daily Summary

Daily Weather History Graph

Daily Weather History Graph

Search for Another Location

Airport or City:

Trip Planner

Search our weather history database for the weather conditions in past years. The results will help you decide how hot, cold, wet, or windy it might be!

Date:

Astronomy

Mar. 02, 2013 Rise Set
Actual Time 6:38 AM MST 6:11 PM MST
Civil Twilight 6:14 AM MST 6:35 PM MST
Nautical Twilight 5:45 AM MST 7:04 PM MST
Astronomical Twilight 5:17 AM MST 7:32 PM MST
Moon 11:32 PM MST (3/2) 9:28 AM MST (3/2)
Length of Visible Light 12h 21m
Length of Day
11h 32m
Waning Gibbous, 73% of the Moon is Illuminated
Mar 2
Waning Gibbous
Mar 4
Last Quarter
Mar 11
New
Mar 19
First Quarter
Mar 27
Full

Hourly Weather History & Observations

Time (MST) Temp. Windchill Dew Point Humidity Pressure Visibility Wind Dir Wind Speed Gust Speed Precip Events Conditions
12:15 AM 37.4 °F 30.3 °F 14.0 °F 38% 30.38 in 10.0 mi North 10.4 mph - N/A   Clear
12:35 AM 37.4 °F 31.4 °F 14.0 °F 38% 30.38 in 10.0 mi North 8.1 mph - N/A   Clear
12:55 AM 37.4 °F 30.8 °F 14.0 °F 38% 30.38 in 10.0 mi NW 9.2 mph - N/A   Clear
1:15 AM 39.2 °F 32.5 °F 15.8 °F 39% 30.39 in 10.0 mi NW 10.4 mph - N/A   Clear
1:35 AM 35.6 °F 28.6 °F 14.0 °F 41% 30.38 in 10.0 mi NW 9.2 mph - N/A   Clear
1:55 AM 35.6 °F 28.0 °F 14.0 °F 41% 30.38 in 10.0 mi NNW 10.4 mph - N/A   Clear
2:15 AM 35.6 °F 27.5 °F 14.0 °F 41% 30.38 in 10.0 mi NNE 11.5 mph - N/A   Clear
2:35 AM 35.6 °F 29.2 °F 14.0 °F 41% 30.37 in 10.0 mi NNW 8.1 mph - N/A   Clear
2:55 AM 35.6 °F 31.7 °F 14.0 °F 41% 30.38 in 10.0 mi NW 4.6 mph - N/A   Clear
3:15 AM 37.4 °F 32.8 °F 15.8 °F 41% 30.37 in 10.0 mi North 5.8 mph - N/A   Clear
3:35 AM 37.4 °F 32.1 °F 15.8 °F 41% 30.38 in 10.0 mi North 6.9 mph - N/A   Clear
3:55 AM 32.0 °F 26.4 °F 14.0 °F 48% 30.37 in 10.0 mi North 5.8 mph - N/A   Clear
4:15 AM 32.0 °F 25.6 °F 14.0 °F 48% 30.38 in 10.0 mi NNE 6.9 mph - N/A   Clear
4:35 AM 33.8 °F 27.0 °F 14.0 °F 44% 30.38 in 10.0 mi NNE 8.1 mph - N/A   Clear
4:55 AM 32.0 °F 24.8 °F 14.0 °F 48% 30.39 in 10.0 mi North 8.1 mph - N/A   Clear
5:15 AM 32.0 °F 24.2 °F 14.0 °F 48% 30.40 in 10.0 mi North 9.2 mph - N/A   Clear
5:35 AM 28.4 °F 22.2 °F 12.2 °F 51% 30.40 in 10.0 mi NNW 5.8 mph - N/A   Clear
5:55 AM 30.2 °F 21.3 °F 14.0 °F 51% 30.40 in 10.0 mi NNW 10.4 mph - N/A   Clear
6:15 AM 28.4 °F 19.1 °F 12.2 °F 51% 30.41 in 10.0 mi NNW 10.4 mph - N/A   Clear
6:35 AM 28.4 °F 19.7 °F 14.0 °F 55% 30.41 in 10.0 mi NNW 9.2 mph - N/A   Clear
6:55 AM 30.2 °F 21.9 °F 14.0 °F 51% 30.41 in 10.0 mi NNW 9.2 mph - N/A   Clear
7:15 AM 32.0 °F 24.2 °F 14.0 °F 48% 30.42 in 10.0 mi NNW 9.2 mph - N/A   Clear
7:35 AM 39.2 °F 34.2 °F 14.0 °F 36% 30.42 in 10.0 mi NNW 6.9 mph - N/A   Clear
7:55 AM 44.6 °F 39.7 °F 14.0 °F 29% 30.43 in 10.0 mi NW 9.2 mph - N/A   Clear
8:15 AM 48.2 °F - 14.0 °F 25% 30.44 in 10.0 mi NNW 8.1 mph - N/A   Clear
8:35 AM 50.0 °F - 14.0 °F 24% 30.44 in 10.0 mi NW 6.9 mph - N/A   Clear
8:55 AM 53.6 °F - 15.8 °F 22% 30.45 in 10.0 mi NW 4.6 mph - N/A   Clear
9:15 AM 53.6 °F - 15.8 °F 22% 30.44 in 10.0 mi West 4.6 mph - N/A   Clear
9:55 AM 55.4 °F - 15.8 °F 21% 30.44 in 10.0 mi SSW 5.8 mph - N/A   Clear
10:15 AM 57.2 °F - 15.8 °F 20% 30.44 in 10.0 mi SW 5.8 mph - N/A   Clear
10:35 AM 57.2 °F - 14.0 °F 18% 30.43 in 10.0 mi WSW 4.6 mph - N/A   Clear
10:55 AM 59.0 °F - 15.8 °F 19% 30.42 in 10.0 mi South 9.2 mph - N/A   Clear
11:15 AM 60.8 °F - 15.8 °F 17% 30.41 in 10.0 mi SSE 8.1 mph - N/A   Clear
11:35 AM 60.8 °F - 14.0 °F 16% 30.41 in 10.0 mi South 8.1 mph - N/A   Clear
11:55 AM 62.6 °F - 14.0 °F 15% 30.41 in 10.0 mi SSW 4.6 mph - N/A   Clear
12:15 PM 62.6 °F - 14.0 °F 15% 30.39 in 10.0 mi South 8.1 mph 17.3 mph N/A   Clear
12:35 PM 62.6 °F - 14.0 °F 15% 30.38 in 10.0 mi WSW 5.8 mph - N/A   Clear
12:55 PM 62.6 °F - 14.0 °F 15% 30.37 in 10.0 mi SSW 8.1 mph 16.1 mph N/A   Clear
1:15 PM 64.4 °F - 14.0 °F 14% 30.36 in 10.0 mi South 9.2 mph - N/A   Clear
1:35 PM 64.4 °F - 14.0 °F 14% 30.35 in 9.0 mi South 9.2 mph 16.1 mph N/A   Clear
1:55 PM 64.4 °F - 14.0 °F 14% 30.34 in 10.0 mi SSW 11.5 mph - N/A   Clear
2:15 PM 64.4 °F - 14.0 °F 14% 30.34 in 10.0 mi SW 10.4 mph 16.1 mph N/A   Clear
2:35 PM 66.2 °F - 15.8 °F 14% 30.33 in 10.0 mi WSW 12.7 mph - N/A   Clear
2:55 PM 66.2 °F - 14.0 °F 13% 30.32 in 10.0 mi SSW 11.5 mph 17.3 mph N/A   Clear
3:15 PM 66.2 °F - 14.0 °F 13% 30.31 in 10.0 mi SSW 13.8 mph 18.4 mph N/A   Clear
3:35 PM 66.2 °F - 14.0 °F 13% 30.31 in 10.0 mi South 15.0 mph 21.9 mph N/A   Clear
3:55 PM 66.2 °F - 14.0 °F 13% 30.30 in 10.0 mi South 12.7 mph - N/A   Clear
4:15 PM 66.2 °F - 12.2 °F 12% 30.30 in 10.0 mi South 13.8 mph 18.4 mph N/A   Clear
4:35 PM 68.0 °F - 10.4 °F 11% 30.29 in 10.0 mi South 13.8 mph - N/A   Clear
4:55 PM 68.0 °F - 8.6 °F 10% 30.29 in 10.0 mi SSW 12.7 mph - N/A   Clear
5:15 PM 66.2 °F - 6.8 °F 10% 30.29 in 10.0 mi SW 10.4 mph - N/A   Clear
5:35 PM 66.2 °F - 6.8 °F 10% 30.29 in 10.0 mi SSW 9.2 mph - N/A   Clear
5:55 PM 64.4 °F - 5.0 °F 10% 30.29 in 10.0 mi WSW 8.1 mph - N/A   Clear
6:15 PM 60.8 °F - 5.0 °F 11% 30.29 in 10.0 mi West 8.1 mph - N/A   Clear
6:35 PM 59.0 °F - 5.0 °F 12% 30.29 in 10.0 mi West 6.9 mph - N/A   Clear
6:55 PM 53.6 °F - 5.0 °F 14% 30.29 in 10.0 mi WNW 5.8 mph - N/A   Clear
7:15 PM 50.0 °F - 5.0 °F 16% 30.29 in 10.0 mi NNW 5.8 mph - N/A   Clear
7:55 PM 50.0 °F - 6.8 °F 17% 30.29 in 10.0 mi North 6.9 mph - N/A   Clear
8:15 PM 46.4 °F 41.1 °F 5.0 °F 18% 30.29 in 10.0 mi North 11.5 mph - N/A   Clear
8:55 PM 44.6 °F 38.8 °F 6.8 °F 21% 30.29 in 10.0 mi North 11.5 mph - N/A   Clear
9:15 PM 42.8 °F 39.3 °F 6.8 °F 23% 30.30 in 10.0 mi SSW 5.8 mph - N/A   Clear
9:35 PM 44.6 °F 40.2 °F 6.8 °F 21% 30.30 in 10.0 mi West 8.1 mph - N/A   Clear
9:55 PM 37.4 °F 33.8 °F 5.0 °F 26% 30.29 in 10.0 mi NW 4.6 mph - N/A   Clear
10:15 PM 35.6 °F 27.5 °F 5.0 °F 28% 30.29 in 10.0 mi NW 11.5 mph - N/A   Clear
10:35 PM 35.6 °F 27.5 °F 6.8 °F 30% 30.29 in 10.0 mi North 11.5 mph - N/A   Clear
10:55 PM 37.4 °F 30.8 °F 6.8 °F 28% 30.29 in 10.0 mi North 9.2 mph - N/A   Clear
11:15 PM 39.2 °F 31.2 °F 8.6 °F 28% 30.29 in 10.0 mi North 13.8 mph - N/A   Clear
11:35 PM 39.2 °F 32.5 °F 8.6 °F 28% 30.28 in 10.0 mi North 10.4 mph - N/A   Clear
11:55 PM 39.2 °F 32.0 °F 8.6 °F 28% 30.27 in 10.0 mi North 11.5 mph - N/A   Clear